Tucson, Arizona, United States (85701)
Lat: 32.22N, Lon: 110.93W
Wx Zone: AZZ504
Local Info
Past Weather Observations for Saturday, July 23, 2016

NOTE: This archive is for the closest National Weather Service station to Tucson. Information may differ from the station used for current weather conditions.

Click here for Long-term Archive

Time Weather Temperature Dewpoint Humidity Pressure Winds Precip Visibility
23:58
Clear
90°F / 32°C 57°F / 14°C 33% 29.92 in
(1013 mb)
W 6.9 mph
(W 11 kph)
- 10SM
22:58
Clear
91°F / 33°C 59°F / 15°C 34% 29.92 in
(1013 mb)
WNW 9.2 mph
(WNW 15 kph)
- 10SM
21:58
Clear
93°F / 34°C 55°F / 13°C 28% 29.92 in
(1013 mb)
W 11.5 mph
(W 19 kph)
- 10SM
20:58
Clear
97°F / 36°C 52°F / 11°C 22% 29.89 in
(1012 mb)
NNW 8.1 mph
(NNW 13 kph)
- 10SM
19:58
Clear
99°F / 37°C 52°F / 11°C 21% 29.86 in
(1011 mb)
NW 12.7 mph
(NW 20 kph)
- 10SM
18:58
Clear
100°F / 38°C 52°F / 11°C 20% 29.86 in
(1011 mb)
NW 12.7 mph
(NW 20 kph)
- 10SM
17:58
Clear
102°F / 39°C 52°F / 11°C 18% 29.86 in
(1011 mb)
NNW 12.7 mph
(NNW 20 kph)
- 10SM
16:58
Clear
102°F / 39°C 54°F / 12°C 20% 29.86 in
(1011 mb)
NNW 10.4 mph
(NNW 17 kph)
- 10SM
15:58
Clear
102°F / 39°C 54°F / 12°C 20% 29.89 in
(1012 mb)
WNW 10.4 mph
(WNW 17 kph)
- 10SM
14:58
Clear
102°F / 39°C 55°F / 13°C 21% 29.92 in
(1013 mb)
WNW 10.4 mph
(WNW 17 kph)
- 10SM
13:58
Clear
102°F / 39°C 55°F / 13°C 21% 29.95 in
(1014 mb)
NW 13.8 mph
(NW 22 kph)
- 10SM
12:58
Partly Cloudy
100°F / 38°C 55°F / 13°C 22% 29.98 in
(1015 mb)
NNW 15 mph
(NNW 24 kph)
- 10SM
11:58
Partly Cloudy
97°F / 36°C 57°F / 14°C 27% 30.01 in
(1016 mb)
W 8.1 mph
(W 13 kph)
- 10SM
10:58
Clear
95°F / 35°C 57°F / 14°C 28% 30.01 in
(1016 mb)
N 11.5 mph
(N 19 kph)
- 10SM
09:58
Clear
91°F / 33°C 57°F / 14°C 32% 30.04 in
(1017 mb)
WNW 4.6 mph
(WNW 7 kph)
- 10SM
08:58
Clear
90°F / 32°C 57°F / 14°C 33% 30.04 in
(1017 mb)
SSE 2.3 mph
(SSE 4 kph)
- 9SM
07:58
Clear
86°F / 30°C 59°F / 15°C 40% 30.04 in
(1017 mb)
SSE 8.1 mph
(SSE 13 kph)
- 10SM
06:58
Clear
84°F / 29°C 59°F / 15°C 43% 30.01 in
(1016 mb)
S 8.1 mph
(S 13 kph)
- 10SM
05:58
Clear
82°F / 28°C 61°F / 16°C 48% 30.01 in
(1016 mb)
SSE 9.2 mph
(SSE 15 kph)
- 10SM
04:58
Clear
82°F / 28°C 61°F / 16°C 48% 30.01 in
(1016 mb)
S 6.9 mph
(S 11 kph)
- 10SM
03:58
Clear
84°F / 29°C 61°F / 16°C 45% 29.98 in
(1015 mb)
SSE 6.9 mph
(SSE 11 kph)
- 10SM
03:33
Clear
84°F / 29°C 59°F / 15°C 43% 29.98 in
(1015 mb)
SSE 6.9 mph
(SSE 11 kph)
- 10SM
03:23
Clear
84°F / 29°C 59°F / 15°C 43% 29.98 in
(1015 mb)
SW 8.1 mph
(SW 13 kph)
- 9SM
03:13
Clear
86°F / 30°C 59°F / 15°C 40% 29.98 in
(1015 mb)
SW 12.7 mph
(SW 20 kph)
- 10SM
02:58
Clear
86°F / 30°C 57°F / 14°C 38% 29.98 in
(1015 mb)
SW 12.7 mph
(SW 20 kph)
- 8SM
02:43
Clear
86°F / 30°C 57°F / 14°C 38% 29.98 in
(1015 mb)
SW 17.3 mph
(SW 28 kph)
- 9SM
02:23
Clear
88°F / 31°C 55°F / 13°C 33% 29.98 in
(1015 mb)
SW 13.8 mph
(SW 22 kph)
- 10SM
02:13
Clear
86°F / 30°C 55°F / 13°C 35% 29.95 in
(1014 mb)
SW 12.7 mph
(SW 20 kph)
- 9SM
01:58
Clear
86°F / 30°C 55°F / 13°C 35% 29.95 in
(1014 mb)
S 10.4 mph
(S 17 kph)
- 10SM
01:48
Clear
86°F / 30°C 55°F / 13°C 35% 29.95 in
(1014 mb)
SSE 6.9 mph
(SSE 11 kph)
- 7SM
01:43
Clear
86°F / 30°C 55°F / 13°C 35% 29.95 in
(1014 mb)
SSE 6.9 mph
(SSE 11 kph)
- 7SM
00:58
Clear
86°F / 30°C 55°F / 13°C 35% 29.95 in
(1014 mb)
SSE 3.5 mph
(SSE 6 kph)
- 9SM
00:38
Clear
86°F / 30°C 54°F / 12°C 33% 29.98 in
(1015 mb)
SW 6.9 mph
(SW 11 kph)
- 10SM
00:33
Clear
86°F / 30°C 54°F / 12°C 33% 29.98 in
(1015 mb)
SW 5.8 mph
(SW 9 kph)
- 8SM
00:28
Clear
Hazy
88°F / 31°C 54°F / 12°C 31% 29.98 in
(1015 mb)
SW 4.6 mph
(SW 7 kph)
- 5SM
00:23
Clear
Hazy
88°F / 31°C 54°F / 12°C 31% 29.98 in
(1015 mb)
SW 5.8 mph
(SW 9 kph)
- 5SM
00:08
Clear
Hazy
90°F / 32°C 54°F / 12°C 29% 29.98 in
(1015 mb)
SW 5.8 mph
(SW 9 kph)
- 6SM
Time Weather Temperature Dewpoint Humidity Pressure Winds Precip Visibility


Weather for websites

WeatherForYou.com, LLC is not responsible for any damages or problems caused by this service. Current weather conditions are obtained from the closest station including government and personal stations which may have varying degrees of accuracy. Weather forecasts are derived from the NOAA NDFD. Like all things, this site belongs to Jesus Christ... He just trusts us to maintain it. If you have any questions or comments email webmaster@weatherforyou.com

Copyright © 2016, WeatherForYou.com LLC. All rights reserved.